| time (UTC) | temp F | wind direction | speed knots | gust knots | rain 1hr in | rain 24hr in | rain mn in | humidity % | barometer mb |
| 20260507124515 | 56 | 181 | 2.6 | 4.3 | 0.00 | 0.00 | 0.00 | 61 | 1015.7 |
| 20260507123013 | 56 | 360 | 0.0 | 4.3 | 0.00 | 0.00 | 0.00 | 62 | 1015.7 |
| 20260507120012 | 56 | 360 | 0.0 | 3.5 | 0.00 | 0.00 | 0.00 | 62 | 1015.9 |
| 20260507114505 | 56 | 184 | 0.9 | 5.2 | 0.00 | 0.00 | 0.00 | 61 | 1015.9 |
| 20260507110022 | 58 | 187 | 0.9 | 4.3 | 0.00 | 0.00 | 0.00 | 60 | 1016.0 |
| 20260507104504 | 58 | 184 | 1.7 | 6.1 | 0.00 | 0.00 | 0.00 | 61 | 1016.0 |
| 20260507103009 | 57 | 90 | 0.9 | 7.0 | 0.00 | 0.00 | 0.00 | 63 | 1016.2 |
| 20260507101510 | 57 | 355 | 0.0 | 2.6 | 0.00 | 0.00 | 0.00 | 67 | 1016.3 |
| 20260507100025 | 56 | 70 | 0.9 | 4.3 | 0.00 | 0.00 | 0.00 | 66 | 1016.3 |
| 20260507094521 | 55 | 183 | 0.9 | 4.3 | 0.00 | 0.00 | 0.00 | 68 | 1016.4 |
| 20260507093003 | 55 | 186 | 0.9 | 6.1 | 0.00 | 0.00 | 0.00 | 68 | 1016.3 |
| 20260507091509 | 54 | 163 | 0.0 | 4.3 | 0.00 | 0.00 | 0.00 | 72 | 1016.3 |
| 20260507090014 | 53 | 155 | 0.0 | 3.5 | 0.00 | 0.00 | 0.00 | 71 | 1016.3 |
| 20260507084518 | 53 | 180 | 0.9 | 5.2 | 0.00 | 0.00 | 0.00 | 69 | 1016.3 |
| 20260507083023 | 53 | 132 | 0.9 | 6.1 | 0.00 | 0.00 | 0.00 | 74 | 1016.3 |
| 20260507080010 | 51 | 118 | 0.9 | 4.3 | 0.00 | 0.00 | 0.00 | 78 | 1016.2 |
| 20260507074526 | 50 | 158 | 0.9 | 5.2 | 0.00 | 0.00 | 0.00 | 83 | 1016.2 |
| 20260507073021 | 49 | 180 | 1.7 | 5.2 | 0.00 | 0.00 | 0.00 | 89 | 1016.1 |
| 20260507071531 | 47 | 138 | 0.0 | 3.5 | 0.00 | 0.00 | 0.00 | 94 | 1016.0 |
| 20260507070012 | 46 | 104 | 0.0 | 0.9 | 0.00 | 0.00 | 0.00 | 95 | 1016.0 |
| 20260507064512 | 45 | 76 | 0.0 | 0.9 | 0.00 | 0.00 | 0.00 | 95 | 1016.0 |
| 20260507063019 | 43 | 310 | 0.0 | 0.9 | 0.00 | 0.00 | 0.00 | 95 | 1016.0 |
| 20260507061530 | 42 | 309 | 0.0 | 0.0 | 0.00 | 0.00 | 0.00 | 94 | 1016.0 |
| 20260507060025 | 42 | 309 | 0.0 | 0.0 | 0.00 | 0.00 | 0.00 | 94 | 1016.0 |
| 20260507054509 | 41 | 309 | 0.0 | 0.0 | 0.00 | 0.00 | 0.00 | 94 | 1016.0 |
| 20260507051519 | 40 | 307 | 0.0 | 0.0 | 0.00 | 0.00 | 0.00 | 94 | 1015.9 |
| 20260507050026 | 40 | 307 | 0.0 | 0.0 | 0.00 | 0.00 | 0.00 | 94 | 1015.8 |
| 20260507044526 | 39 | 308 | 0.0 | 0.9 | 0.00 | 0.00 | 0.00 | 93 | 1015.7 |
| 20260507041504 | 39 | 309 | 0.0 | 0.0 | 0.00 | 0.00 | 0.00 | 93 | 1015.7 |
| 20260507040004 | 39 | 309 | 0.0 | 0.9 | 0.00 | 0.00 | 0.00 | 93 | 1015.6 |
| 20260507033011 | 39 | 22 | 0.0 | 0.0 | 0.00 | 0.00 | 0.00 | 92 | 1015.4 |
| 20260507031518 | 39 | 22 | 0.0 | 0.0 | 0.00 | 0.00 | 0.00 | 92 | 1015.4 |
| 20260507024504 | 41 | 22 | 0.0 | 0.0 | 0.00 | 0.00 | 0.00 | 92 | 1015.3 |
| 20260507023007 | 41 | 22 | 0.0 | 0.0 | 0.00 | 0.00 | 0.00 | 92 | 1015.3 |
| 20260507013011 | 44 | 22 | 0.0 | 0.0 | 0.00 | 0.00 | 0.00 | 92 | 1015.3 |
| 20260507004520 | 45 | 22 | 0.0 | 0.0 | 0.00 | 0.00 | 0.00 | 92 | 1015.4 |
| 20260507001508 | 45 | 22 | 0.0 | 0.0 | 0.00 | 0.00 | 0.00 | 92 | 1015.5 |
| 20260507000012 | 45 | 21 | 0.0 | 0.9 | 0.00 | 0.00 | 0.00 | 92 | 1015.5 |
| 20260506234535 | 45 | 25 | 0.0 | 0.0 | 0.00 | 0.00 | 0.00 | 92 | 1015.5 |
| 20260506233022 | 45 | 25 | 0.0 | 0.9 | 0.00 | 0.00 | 0.00 | 92 | 1015.6 |
| 20260506230010 | 45 | 32 | 0.0 | 0.9 | 0.00 | 0.00 | 0.00 | 91 | 1015.5 |
| 20260506224524 | 45 | 340 | 0.0 | 0.9 | 0.00 | 0.00 | 0.00 | 91 | 1015.4 |
| 20260506223018 | 45 | 348 | 0.0 | 2.6 | 0.00 | 0.00 | 0.00 | 91 | 1015.4 |
| 20260506221520 | 45 | 44 | 0.0 | 1.7 | 0.00 | 0.00 | 0.00 | 91 | 1015.4 |
| 20260506220033 | 45 | 89 | 0.0 | 2.6 | 0.00 | 0.00 | 0.00 | 91 | 1015.3 |
| 20260506214524 | 45 | 65 | 0.0 | 2.6 | 0.00 | 0.00 | 0.00 | 91 | 1015.3 |
| 20260506213015 | 45 | 318 | 0.9 | 2.6 | 0.00 | 0.00 | 0.00 | 91 | 1015.3 |
| 20260506211522 | 44 | 287 | 0.0 | 2.6 | 0.00 | 0.00 | 0.00 | 90 | 1015.2 |
| 20260506210021 | 44 | 319 | 0.0 | 2.6 | 0.00 | 0.00 | 0.00 | 90 | 1015.2 |
| 20260506204509 | 44 | 304 | 0.0 | 6.1 | 0.00 | 0.00 | 0.00 | 90 | 1014.9 |
| 20260506203013 | 44 | 309 | 0.0 | 5.2 | 0.00 | 0.00 | 0.00 | 90 | 1014.9 |
| 20260506201515 | 44 | 292 | 0.9 | 5.2 | 0.00 | 0.00 | 0.00 | 90 | 1014.9 |
| 20260506200019 | 44 | 64 | 0.9 | 6.1 | 0.00 | 0.00 | 0.00 | 90 | 1014.8 |
| 20260506194531 | 44 | 301 | 1.7 | 5.2 | 0.00 | 0.00 | 0.00 | 91 | 1014.9 |
| 20260506193008 | 44 | 297 | 0.9 | 7.8 | 0.00 | 0.00 | 0.00 | 91 | 1014.7 |
| 20260506191514 | 45 | 214 | 1.7 | 8.7 | 0.00 | 0.00 | 0.00 | 91 | 1014.6 |
| 20260506190015 | 45 | 38 | 0.9 | 7.8 | 0.00 | 0.00 | 0.00 | 91 | 1014.6 |
| 20260506184524 | 45 | 56 | 0.9 | 7.8 | 0.00 | 0.00 | 0.00 | 91 | 1014.6 |
| 20260506183023 | 45 | 342 | 1.7 | 12.2 | 0.00 | 0.00 | 0.00 | 91 | 1014.5 |
| 20260506181508 | 45 | 340 | 1.7 | 7.0 | 0.00 | 0.00 | 0.00 | 91 | 1014.4 |
| 20260506180014 | 45 | 294 | 1.7 | 10.4 | 0.00 | 0.00 | 0.00 | 92 | 1014.3 |
| 20260506174515 | 45 | 344 | 1.7 | 8.7 | 0.00 | 0.00 | 0.00 | 92 | 1014.1 |
| 20260506173024 | 45 | 61 | 0.9 | 8.7 | 0.00 | 0.00 | 0.00 | 92 | 1014.1 |
| 20260506171526 | 46 | 279 | 3.5 | 8.7 | 0.00 | 0.00 | 0.00 | 91 | 1014.1 |
| 20260506170021 | 46 | 5 | 0.9 | 7.0 | 0.00 | 0.00 | 0.00 | 91 | 1014.2 |
| 20260506164518 | 46 | 272 | 2.6 | 7.0 | 0.00 | 0.00 | 0.00 | 90 | 1014.3 |
| 20260506163018 | 47 | 57 | 1.7 | 7.8 | 0.00 | 0.00 | 0.00 | 89 | 1014.2 |
| 20260506161524 | 48 | 142 | 1.7 | 7.8 | 0.00 | 0.00 | 0.00 | 88 | 1014.0 |
| 20260506160037 | 49 | 348 | 2.6 | 10.4 | 0.00 | 0.00 | 0.00 | 86 | 1014.0 |
| 20260506154517 | 49 | 343 | 1.7 | 7.0 | 0.00 | 0.00 | 0.00 | 84 | 1014.0 |
| 20260506153020 | 50 | 288 | 3.5 | 10.4 | 0.00 | 0.00 | 0.00 | 82 | 1014.0 |
| 20260506151522 | 51 | 263 | 3.5 | 10.4 | 0.00 | 0.00 | 0.00 | 80 | 1013.8 |
| 20260506150021 | 51 | 324 | 3.5 | 9.6 | 0.00 | 0.00 | 0.00 | 78 | 1013.7 |
| 20260506144526 | 52 | 304 | 5.2 | 10.4 | 0.00 | 0.00 | 0.00 | 76 | 1013.7 |
| 20260506143024 | 52 | 340 | 2.6 | 9.6 | 0.00 | 0.00 | 0.00 | 74 | 1013.6 |
| 20260506141520 | 53 | 302 | 1.7 | 7.8 | 0.00 | 0.00 | 0.00 | 71 | 1013.6 |
| 20260506140024 | 53 | 325 | 3.5 | 11.3 | 0.00 | 0.00 | 0.00 | 69 | 1013.6 |
| 20260506134525 | 53 | 128 | 0.9 | 7.8 | 0.00 | 0.00 | 0.00 | 69 | 1013.5 |
| 20260506133024 | 52 | 88 | 2.6 | 9.6 | 0.00 | 0.00 | 0.00 | 69 | 1013.6 |
| 20260506131541 | 53 | 305 | 1.7 | 7.8 | 0.00 | 0.00 | 0.00 | 66 | 1013.5 |